Regional Weather Roundup
Issued by NWS Upton, NY

Current Version | Previous Version | Graphics & Text | Print | Product List | Glossary Off
Versions: 1 2 3 4 5 6 7 8 9 10 11 12 13 14 15 16 17 18 19 20 21 22 23 24 25 26 27 28 29

000
ASUS41 KOKX 300705
RWROKX

REGIONAL WEATHER ROUNDUP
NATIONAL WEATHER SERVICE NEW YORK NY
300 AM EDT THU OCT 30 2014

NOTE: "FAIR" INDICATES FEW OR NO CLOUDS BELOW 12,000 FEET WITH NO
SIGNIFICANT WEATHER AND/OR OBSTRUCTIONS TO VISIBILITY.

NYZ071-072-176-178-NJZ106-104-300800-
NEW YORK CITY METRO AREA


CITY           SKY/WX    TMP DP  RH WIND       PRES   REMARKS
CENTRAL PARK   CLEAR     51  44  77 CALM      29.97S
LAGUARDIA APRT PTCLDY    52  46  80 NW6       29.94S
KENNEDY INTL   PTCLDY    50  44  80 W3        29.96R
NEWARK/LIBERTY PTCLDY    48  46  93 SW3       29.95S
BRNX BOT. GARD   N/A     48  45  87 CALM      29.94S
TETERBORO      CLEAR     43  41  93 CALM      29.94S
$$

NYZ177-179-078>081-300800-
LONG ISLAND NEW YORK

CITY           SKY/WX    TMP DP  RH WIND       PRES   REMARKS
FARMINGDALE    CLEAR     49  46  90 CALM      29.94S
ISLIP          CLEAR     47  45  93 NW5       29.92F
SHIRLEY        PTCLDY    47  45  93 CALM      29.94S
WESTHAMPTON    MOCLDY    43  40  89 CALM      29.94F
MONTAUK POINT    N/A     55  39  54 NW12      29.93S
$$

NYZ052-065-067-300800-
HUDSON VALLEY

CITY           SKY/WX    TMP DP  RH WIND       PRES   REMARKS
WHITE PLAINS   CLEAR     42  41  96 NW6       29.93S
NEWBURGH       CLEAR     43  43 100 CALM      29.95S FOG
MONTGOMERY     FOG       37  36  96 SW3       29.94R VSB 1/4
POUGHKEEPSIE   CLEAR     40  38  93 CALM      29.93S FOG
ALBANY         CLOUDY    48  41  76 W6        29.93R
$$

NJZ001-105-106-008-010-013-015-019>022-104-300800-
NEW JERSEY

CITY           SKY/WX    TMP DP  RH WIND       PRES   REMARKS
NEWARK/LIBERTY PTCLDY    48  46  93 SW3       29.95S
TETERBORO      CLEAR     43  41  93 CALM      29.94S
CALDWELL       FOG       41  40  96 S5        29.96S VSB 1
MORRISTOWN     FOG       41  37  87 CALM      29.96S VSB<1/4
SOMERVILLE     FOG       44  43  96 CALM      29.95S VSB 1/4
SUSSEX         FOG       43  41  93 CALM      29.95S VSB 1/4
ANDOVER          N/A     41  41 100 SW5       29.96R
TRENTON        FOG       47  45  93 W3        29.96R VSB 1/4
MILLVILLE      MOCLDY    42  41  96 CALM      29.97F FOG
ATLANTIC CITY  CLEAR     46  45  96 CALM      29.97F
WRIGHTSTOWN    FOG       45  45 100 W2        29.94F VSB 1/4
TOMS RIVER     MOCLDY    43  39  87 CALM      29.96F
BELMAR         MOCLDY    46  41  81 W3        29.95F
$$

PAZ047>061-062-071-300800-
EASTERN PENNSYLVANIA

CITY           SKY/WX    TMP DP  RH WIND       PRES   REMARKS
PHILADELPHIA   PTCLDY    48  46  93 SW5       29.98S FOG
ALLENTOWN      FOG       44  42  93 CALM      29.96S VSB 1/4
SCRANTON       CLOUDY    43  40  89 SE3       29.95R
$$

CTZ002-004>006-009-010-012-RIZ004-006-007-MAZ004-011-015-300800-
SOUTHERN NEW ENGLAND
 IN CT

CITY           SKY/WX    TMP DP  RH WIND       PRES   REMARKS
BRADLEY INTL   PTCLDY    41  38  89 CALM      29.92S
HARTFORD       CLEAR     41  40  96 MISG      29.93S FOG
DANBURY        FOG       39  37  92 CALM      29.95R VSB 1/2
WTRBRY/OXFORD  CLEAR     41  36  81 NW3       29.94S
BRIDGEPORT     CLEAR     47  46  97 CALM      29.93F
MERIDEN        CLEAR     40  38  93 CALM      29.94R
NEW HAVEN      CLEAR     44  39  82 CALM      29.93F
CHESTER        FAIR      45  39  81 CALM      29.93S
GROTON         MOCLDY    46  38  73 N6        29.92R
WILLIMANTIC    PTCLDY    42  39  89 CALM      29.93R FOG

 IN RI

CITY           SKY/WX    TMP DP  RH WIND       PRES   REMARKS
PROVIDENCE     MOCLDY    49  41  74 W3        29.91S
BLOCK ISLAND   MOCLDY    52  37  58 NW8       29.91S
WESTERLY       MOCLDY    49  39  68 NW5       29.92S

 IN MA

CITY           SKY/WX    TMP DP  RH WIND       PRES   REMARKS
BOSTON         PTCLDY    49  42  77 W8        29.89R
WORCESTER      CLEAR     43  37  79 W12       29.89S
WESTFIELD      FOG       37  35  92 CALM      29.92S VSB 3/4
PROVINCETOWN   MOCLDY    52   0  11 NW12      29.88S
NANTUCKET      CLOUDY    55  48  77 NW7       29.87F
$$

ANZ330-335-338-340-345-350-353-355-300800-
COASTAL MARINE OBSERVATIONS


STATION/POSITION TIME  SKY/WX   TEMP    WIND        PRES    VSBY  WAVE
                                AIR SEA DIR/SP/G                  HT/PER
                 (UTC)          (F)     (DEG/KT/KT) (MB)    (MI)  (FT/S)
NY HARB ENTRANCE 0700            56 61  290/ 10/ 12 1014.4          2/ 6
4S FIRE IS       0700               62                N/A           3/ 6
20S FIRE ISLAND  0700            56 62  350/ 10/ 12 1013.6          3/ 6
23SW MTP         0700                                 N/A           4/ 7
HUDSON CANYON    0700            59 65  330/ 16/ 19 1013.2          4/ 5
EXECUTION ROCKS  0700            53 60  250/  6/  8   N/A
WESTERN LI SOUND 0700            54     300/  6/  6   N/A           0
CENTRAL LI SOUND 0600            54 62  340/ 10/ 14   N/A           1/ 4
EASTERN LI SOUND 0600            53 62  340/  8/ 10   N/A
ROBBINS REEF     0600            51     280/  6/  7 1013.1
$$


>>>>>>>>>>>>>>>>>>>>>>>>>>>> KEY <<<<<<<<<<<<<<<<<<<<<<<<<<<
>                                                          <
>     SKY/WX - SKY CONDITION/PRESENT WEATHER               <
>     TMP    - TEMPERATURE IN FAHRENHEIT                   <
>     DP     - DEWPOINT IN FAHRENHEIT                      <
>     RH     - RELATIVE HUMIDITY IN PERCENT                <
>     WIND   - DIRECTION AND SPEED IN MPH                  <
>     PRES   - MEAN SEA LEVEL PRESSURE IN INCHES OF HG     <
>     WCI    - WIND CHILL INDEX                            <
>     VSB    - VISIBILITY IN MILES                         <
>     HX     - HEAT INDEX                                  <
>     TC     - TEMPERATURE IN CELSIUS                      <
>     VRB    - VARIABLE WIND DIRECTION                     <
>                                                          <
>>>>>>>>>>>>>>>>>>>>>>>>>>>> KEY <<<<<<<<<<<<<<<<<<<<<<<<<<<





USA.gov is the U.S. government's official web portal to all federal, state and local government web resources and services.